QPF
0.09 0.17 0.16 0.15 0.17 0.17 0.18 0.17 0.16 0.13 0.10 0.09 0.10 0.09 0.10 0.08 0.06 0.04 0.02 0.02 0.02 0.01 0.01 0.01 0.01 0.01 0.01 0.01 0.01 0.02 0.02 0.01 0.02 0.02 0.02 0.02 0.02 0.02 0.02 0.01 0.01 0.01 0.02
0.09 0.14 0.15 0.16 0.17 0.18 0.20 0.17 0.11 0.08 0.09 0.08 0.09 0.08 0.09 0.08 0.06 0.03 0.02 0.02 0.02 0.01 0.01 0.01 0.01 0.01 0.00 0.00 0.00 0.00 0.01 0.01 0.00 0.00 0.00 0.01 0.02 0.01 0.01 0.01 0.01 0.01 0.01
0.08 0.12 0.13 0.12 0.17 0.16 0.19 0.19 0.14 0.10 0.11 0.10 0.10 0.09 0.09 0.07 0.06 0.03 0.01 0.01 0.01 0.01 0.01 0.01 0.01 0.00 0.00 0.00 0.00 0.00 0.00 0.00 0.00 0.00 0.00 0.00 0.00 0.00 0.00 0.00 0.00 0.01 0.01
0.06 0.11 0.11 0.09 0.14 0.16 0.16 0.17 0.15 0.13 0.13 0.11 0.09 0.07 0.05 0.04 0.02 0.02 0.02 0.01 0.01 0.01 0.01 0.01 0.01 0.01 0.00 0.00 0.00 0.00 0.00 0.00 0.00 0.00 0.00 0.00 0.00 0.00 0.00 0.00 0.00 0.00 0.00
0.04 0.06 0.08 0.09 0.10 0.10 0.11 0.12 0.12 0.12 0.11 0.11 0.09 0.06 0.04 0.04 0.03 0.03 0.03 0.02 0.01 0.01 0.01 0.00 0.00 0.01 0.00 0.00 0.00 0.00 0.00 0.00 0.00 0.00 0.00 0.00 0.00 0.00 0.00 0.00 0.00 0.00 0.00
0.03 0.06 0.09 0.08 0.07 0.08 0.10 0.08 0.09 0.08 0.08 0.08 0.07 0.05 0.03 0.02 0.02 0.02 0.02 0.02 0.02 0.01 0.01 0.00 0.00 0.00 0.00 0.00 0.00 0.00 0.00 0.00 0.00 0.00 0.00 0.00 0.00 0.00 0.00 0.00 0.00 0.00 0.00
0.03 0.08 0.12 0.06 0.05 0.06 0.06 0.06 0.06 0.05 0.05 0.05 0.05 0.04 0.02 0.01 0.01 0.01 0.01 0.01 0.01 0.01 0.01 0.01 0.00 0.00 0.00 0.00 0.00 0.00 0.00 0.00 0.00 0.00 0.00 0.00 0.00 0.00 0.00 0.00 0.00 0.00 0.00
0.02 0.05 0.06 0.04 0.03 0.04 0.04 0.04 0.04 0.03 0.03 0.02 0.02 0.01 0.01 0.01 0.01 0.02 0.02 0.01 0.01 0.02 0.02 0.01 0.00 0.00 0.00 0.00 0.00 0.00 0.00 0.00 0.00 0.00 0.00 0.00 0.00 0.00 0.00 0.00 0.00 0.00 0.00
0.01 0.02 0.03 0.04 0.02 0.03 0.03 0.03 0.02 0.02 0.03 0.02 0.02 0.01 0.01 0.02 0.02 0.03 0.03 0.03 0.02 0.02 0.02 0.01 0.00 0.00 0.00 0.00 0.00 0.00 0.00 0.00 0.00 0.00 0.00 0.00 0.00 0.00 0.00 0.00 0.00 0.00 0.00
0.00 0.01 0.02 0.02 0.02 0.02 0.03 0.02 0.02 0.03 0.04 0.04 0.03 0.02 0.01 0.02 0.03 0.03 0.03 0.03 0.02 0.01 0.01 0.00 0.00 0.00 0.00 0.00 0.00 0.00 0.00 0.00 0.00 0.00 0.00 0.00 0.00 0.00 0.00 0.00 0.00 0.00 0.00
0.00 0.01 0.02 0.02 0.02 0.02 0.03 0.02 0.02 0.03 0.05 0.05 0.04 0.03 0.02 0.03 0.03 0.03 0.02 0.02 0.01 0.01 0.01 0.00 0.00 0.00 0.00 0.00 0.00 0.00 0.00 0.00 0.00 0.00 0.00 0.00 0.00 0.00 0.00 0.00 0.00 0.00 0.00
0.01 0.02 0.02 0.02 0.01 0.02 0.02 0.02 0.02 0.02 0.04 0.07 0.06 0.03 0.03 0.04 0.04 0.03 0.02 0.01 0.01 0.01 0.00 0.00 0.00 0.00 0.00 0.00 0.00 0.00 0.00 0.00 0.00 0.00 0.00 0.00 0.00 0.00 0.00 0.00 0.00 0.00 0.00
0.01 0.02 0.02 0.02 0.02 0.04 0.05 0.05 0.04 0.03 0.04 0.07 0.07 0.04 0.03 0.03 0.03 0.02 0.01 0.01 0.00 0.00 0.00 0.00 0.00 0.00 0.00 0.00 0.00 0.00 0.00 0.00 0.00 0.00 0.00 0.00 0.00 0.00 0.00 0.00 0.00 0.00 0.00
0.00 0.00 0.01 0.01 0.01 0.03 0.06 0.10 0.07 0.05 0.04 0.07 0.07 0.03 0.02 0.02 0.02 0.02 0.01 0.00 0.00 0.00 0.00 0.00 0.00 0.00 0.00 0.00 0.00 0.00 0.00 0.00 0.00 0.00 0.00 0.00 0.00 0.00 0.00 0.00 0.00 0.00 0.00
0.00 0.00 0.00 0.01 0.01 0.01 0.01 0.04 0.07 0.05 0.04 0.06 0.06 0.03 0.02 0.02 0.02 0.02 0.01 0.00 0.00 0.00 0.00 0.00 0.00 0.00 0.00 0.00 0.00 0.00 0.00 0.00 0.00 0.00 0.00 0.00 0.00 0.00 0.00 0.00 0.00 0.00 0.00
0.00 0.00 0.00 0.00 0.00 0.00 0.00 0.00 0.01 0.02 0.02 0.04 0.05 0.03 0.02 0.01 0.01 0.01 0.01 0.01 0.00 0.00 0.00 0.00 0.00 0.00 0.00 0.00 0.00 0.00 0.00 0.00 0.00 0.00 0.00 0.00 0.00 0.00 0.00 0.00 0.00 0.00 0.00
0.00 0.00 0.00 0.00 0.00 0.00 0.00 0.00 0.00 0.00 0.01 0.02 0.03 0.02 0.01 0.01 0.01 0.01 0.01 0.00 0.00 0.00 0.00 0.00 0.00 0.00 0.00 0.00 0.00 0.00 0.00 0.00 0.00 0.00 0.00 0.00 0.00 0.00 0.00 0.00 0.00 0.00 0.00
0.01 0.01 0.01 0.01 0.01 0.01 0.01 0.01 0.00 0.00 0.01 0.01 0.01 0.01 0.01 0.01 0.01 0.01 0.01 0.00 0.00 0.00 0.00 0.00 0.00 0.00 0.00 0.00 0.00 0.00 0.00 0.00 0.00 0.00 0.00 0.00 0.00 0.00 0.00 0.00 0.00 0.00 0.00
0.02 0.02 0.02 0.01 0.02 0.02 0.01 0.01 0.01 0.00 0.01 0.01 0.01 0.01 0.01 0.01 0.02 0.02 0.01 0.00 0.00 0.00 0.00 0.00 0.00 0.00 0.00 0.00 0.00 0.00 0.00 0.00 0.00 0.00 0.00 0.00 0.00 0.00 0.00 0.00 0.00 0.00 0.00
0.02 0.02 0.02 0.02 0.01 0.01 0.02 0.02 0.02 0.02 0.02 0.02 0.01 0.02 0.02 0.02 0.02 0.02 0.01 0.01 0.00 0.00 0.00 0.00 0.00 0.00 0.00 0.00 0.00 0.00 0.00 0.00 0.00 0.00 0.00 0.00 0.00 0.00 0.00 0.00 0.00 0.00 0.00
0.03 0.03 0.02 0.02 0.03 0.03 0.03 0.03 0.03 0.02 0.03 0.04 0.04 0.04 0.03 0.03 0.04 0.03 0.02 0.01 0.01 0.00 0.00 0.00 0.00 0.00 0.00 0.00 0.00 0.00 0.00 0.00 0.00 0.00 0.00 0.01 0.01 0.01 0.01 0.00 0.00 0.00 0.00
0.03 0.03 0.03 0.03 0.04 0.04 0.04 0.04 0.04 0.05 0.06 0.07 0.07 0.06 0.06 0.06 0.05 0.04 0.03 0.02 0.01 0.01 0.00 0.00 0.00 0.00 0.00 0.00 0.01 0.01 0.01 0.01 0.01 0.00 0.01 0.01 0.02 0.02 0.01 0.01 0.01 0.01 0.00
0.05 0.04 0.04 0.04 0.04 0.05 0.05 0.06 0.07 0.09 0.10 0.09 0.09 0.08 0.07 0.06 0.04 0.04 0.04 0.03 0.02 0.01 0.01 0.01 0.00 0.01 0.01 0.01 0.01 0.02 0.03 0.03 0.02 0.02 0.02 0.03 0.03 0.02 0.01 0.01 0.01 0.01 0.00
0.07 0.05 0.03 0.03 0.04 0.05 0.05 0.06 0.07 0.08 0.10 0.10 0.09 0.09 0.09 0.07 0.06 0.06 0.05 0.04 0.04 0.03 0.02 0.02 0.02 0.02 0.02 0.02 0.02 0.02 0.03 0.03 0.02 0.02 0.02 0.03 0.03 0.03 0.02 0.01 0.01 0.00 0.00
0.05 0.05 0.04 0.03 0.03 0.04 0.05 0.07 0.08 0.10 0.10 0.10 0.10 0.11 0.11 0.10 0.09 0.07 0.07 0.06 0.06 0.05 0.05 0.05 0.05 0.05 0.04 0.04 0.03 0.03 0.02 0.02 0.03 0.03 0.04 0.04 0.04 0.04 0.02 0.01 0.01 0.00 0.00
0.03 0.03 0.03 0.04 0.04 0.05 0.07 0.09 0.10 0.13 0.16 0.14 0.13 0.13 0.13 0.13 0.13 0.12 0.12 0.12 0.11 0.11 0.10 0.09 0.08 0.07 0.06 0.05 0.04 0.03 0.03 0.03 0.03 0.04 0.04 0.04 0.04 0.03 0.02 0.01 0.00 0.00 0.00
MSLP
1008.24 1007.93 1007.59 1007.29 1007.13 1007.17 1007.46 1008.03 1008.84 1009.83 1010.90 1011.94 1012.88 1013.65 1014.21 1014.58 1014.80 1014.94 1015.05 1015.20 1015.42 1015.72 1016.08 1016.48 1016.88 1017.25 1017.57 1017.82 1018.02 1018.16 1018.28 1018.37 1018.44 1018.50 1018.54 1018.53 1018.49 1018.39 1018.25 1018.08 1017.90 1017.73 1017.60
1008.19 1007.89 1007.55 1007.26 1007.09 1007.12 1007.42 1008.00 1008.84 1009.87 1010.99 1012.08 1013.06 1013.85 1014.41 1014.76 1014.94 1015.04 1015.12 1015.25 1015.47 1015.79 1016.18 1016.62 1017.06 1017.44 1017.75 1017.98 1018.13 1018.23 1018.29 1018.35 1018.41 1018.48 1018.54 1018.57 1018.57 1018.50 1018.38 1018.20 1018.00 1017.78 1017.59
1008.31 1008.06 1007.78 1007.53 1007.38 1007.42 1007.70 1008.27 1009.10 1010.12 1011.23 1012.33 1013.30 1014.09 1014.64 1014.98 1015.15 1015.23 1015.30 1015.42 1015.65 1015.99 1016.41 1016.86 1017.31 1017.69 1017.98 1018.16 1018.26 1018.31 1018.32 1018.35 1018.40 1018.48 1018.57 1018.65 1018.69 1018.67 1018.58 1018.41 1018.20 1017.95 1017.71
1008.59 1008.44 1008.25 1008.06 1007.96 1008.00 1008.27 1008.79 1009.55 1010.51 1011.56 1012.60 1013.54 1014.29 1014.83 1015.17 1015.34 1015.43 1015.52 1015.67 1015.92 1016.27 1016.70 1017.17 1017.60 1017.96 1018.22 1018.36 1018.41 1018.41 1018.38 1018.39 1018.44 1018.53 1018.66 1018.78 1018.88 1018.91 1018.86 1018.71 1018.50 1018.24 1017.97
1008.97 1008.95 1008.88 1008.79 1008.74 1008.79 1009.02 1009.46 1010.12 1010.95 1011.89 1012.83 1013.69 1014.40 1014.92 1015.26 1015.46 1015.59 1015.72 1015.91 1016.19 1016.57 1017.02 1017.48 1017.90 1018.23 1018.45 1018.56 1018.57 1018.53 1018.48 1018.47 1018.52 1018.64 1018.80 1018.97 1019.12 1019.20 1019.19 1019.08 1018.88 1018.62 1018.34
1009.38 1009.51 1009.58 1009.60 1009.61 1009.67 1009.85 1010.19 1010.71 1011.39 1012.17 1012.98 1013.73 1014.37 1014.87 1015.23 1015.47 1015.66 1015.85 1016.11 1016.44 1016.84 1017.30 1017.76 1018.16 1018.47 1018.66 1018.73 1018.72 1018.66 1018.60 1018.59 1018.65 1018.79 1018.98 1019.18 1019.37 1019.49 1019.52 1019.45 1019.29 1019.04 1018.76
1009.75 1010.03 1010.25 1010.39 1010.47 1010.54 1010.67 1010.90 1011.27 1011.78 1012.38 1013.03 1013.67 1014.24 1014.72 1015.09 1015.38 1015.64 1015.91 1016.23 1016.61 1017.05 1017.51 1017.96 1018.34 1018.63 1018.79 1018.85 1018.83 1018.77 1018.72 1018.72 1018.80 1018.95 1019.15 1019.38 1019.59 1019.74 1019.81 1019.77 1019.64 1019.43 1019.17
1010.00 1010.44 1010.80 1011.06 1011.22 1011.31 1011.40 1011.53 1011.77 1012.11 1012.54 1013.04 1013.56 1014.06 1014.51 1014.91 1015.25 1015.58 1015.92 1016.29 1016.71 1017.17 1017.63 1018.07 1018.43 1018.70 1018.86 1018.92 1018.90 1018.86 1018.83 1018.84 1018.92 1019.08 1019.29 1019.52 1019.74 1019.90 1019.99 1019.99 1019.90 1019.73 1019.51
1010.09 1010.66 1011.16 1011.53 1011.77 1011.91 1011.98 1012.06 1012.18 1012.39 1012.69 1013.07 1013.49 1013.92 1014.35 1014.75 1015.14 1015.52 1015.91 1016.32 1016.76 1017.22 1017.67 1018.09 1018.43 1018.69 1018.84 1018.91 1018.92 1018.90 1018.89 1018.92 1019.01 1019.16 1019.36 1019.58 1019.78 1019.95 1020.05 1020.07 1020.02 1019.91 1019.73
1009.99 1010.67 1011.28 1011.76 1012.10 1012.29 1012.39 1012.45 1012.52 1012.65 1012.86 1013.15 1013.50 1013.89 1014.29 1014.70 1015.11 1015.51 1015.93 1016.35 1016.79 1017.23 1017.66 1018.04 1018.36 1018.59 1018.75 1018.84 1018.87 1018.88 1018.90 1018.95 1019.04 1019.18 1019.35 1019.54 1019.72 1019.87 1019.97 1020.01 1020.00 1019.94 1019.83
1009.70 1010.45 1011.15 1011.73 1012.15 1012.43 1012.59 1012.68 1012.76 1012.88 1013.06 1013.31 1013.63 1013.99 1014.38 1014.78 1015.19 1015.60 1016.01 1016.42 1016.83 1017.23 1017.61 1017.94 1018.23 1018.45 1018.61 1018.71 1018.77 1018.81 1018.85 1018.92 1019.01 1019.13 1019.27 1019.42 1019.56 1019.68 1019.77 1019.83 1019.85 1019.83 1019.78
1009.24 1010.03 1010.78 1011.43 1011.95 1012.32 1012.57 1012.74 1012.89 1013.05 1013.26 1013.52 1013.84 1014.20 1014.58 1014.98 1015.37 1015.76 1016.14 1016.51 1016.87 1017.21 1017.54 1017.82 1018.07 1018.27 1018.42 1018.54 1018.62 1018.69 1018.75 1018.83 1018.92 1019.01 1019.12 1019.23 1019.33 1019.42 1019.49 1019.55 1019.59 1019.62 1019.62
1008.66 1009.44 1010.21 1010.91 1011.50 1011.96 1012.33 1012.61 1012.87 1013.12 1013.40 1013.71 1014.06 1014.44 1014.83 1015.21 1015.59 1015.94 1016.28 1016.60 1016.91 1017.19 1017.45 1017.69 1017.90 1018.07 1018.22 1018.34 1018.43 1018.52 1018.60 1018.68 1018.76 1018.84 1018.91 1018.98 1019.04 1019.10 1019.15 1019.21 1019.26 1019.31 1019.36
1008.00 1008.74 1009.48 1010.20 1010.83 1011.39 1011.87 1012.29 1012.67 1013.05 1013.43 1013.82 1014.22 1014.63 1015.02 1015.41 1015.76 1016.08 1016.38 1016.66 1016.91 1017.14 1017.35 1017.54 1017.71 1017.86 1017.99 1018.11 1018.21 1018.30 1018.38 1018.46 1018.53 1018.59 1018.64 1018.68 1018.71 1018.74 1018.77 1018.81 1018.86 1018.92 1018.99
1007.31 1007.96 1008.65 1009.34 1010.01 1010.64 1011.22 1011.77 1012.29 1012.79 1013.29 1013.77 1014.23 1014.68 1015.10 1015.48 1015.82 1016.12 1016.39 1016.63 1016.84 1017.03 1017.21 1017.36 1017.50 1017.63 1017.74 1017.84 1017.93 1018.02 1018.09 1018.16 1018.22 1018.26 1018.29 1018.30 1018.31 1018.31 1018.32 1018.34 1018.38 1018.43 1018.50
1006.60 1007.14 1007.75 1008.40 1009.08 1009.76 1010.43 1011.09 1011.74 1012.36 1012.96 1013.53 1014.06 1014.55 1014.98 1015.37 1015.71 1016.00 1016.26 1016.48 1016.68 1016.86 1017.02 1017.15 1017.27 1017.37 1017.46 1017.53 1017.60 1017.66 1017.71 1017.76 1017.80 1017.83 1017.84 1017.84 1017.83 1017.82 1017.81 1017.80 1017.81 1017.84 1017.89
1005.90 1006.31 1006.82 1007.43 1008.09 1008.81 1009.55 1010.31 1011.06 1011.79 1012.48 1013.12 1013.70 1014.22 1014.68 1015.08 1015.42 1015.73 1015.99 1016.22 1016.43 1016.61 1016.76 1016.89 1016.99 1017.06 1017.12 1017.16 1017.19 1017.21 1017.24 1017.26 1017.27 1017.29 1017.29 1017.28 1017.26 1017.23 1017.20 1017.17 1017.15 1017.15 1017.15
1005.19 1005.48 1005.90 1006.45 1007.11 1007.85 1008.65 1009.48 1010.31 1011.12 1011.88 1012.57 1013.19 1013.74 1014.21 1014.62 1014.98 1015.30 1015.59 1015.84 1016.07 1016.27 1016.43 1016.56 1016.65 1016.70 1016.72 1016.72 1016.70 1016.68 1016.66 1016.65 1016.64 1016.64 1016.63 1016.62 1016.59 1016.56 1016.51 1016.46 1016.40 1016.35 1016.31
1004.45 1004.65 1005.00 1005.51 1006.16 1006.93 1007.77 1008.66 1009.55 1010.41 1011.22 1011.94 1012.58 1013.14 1013.62 1014.05 1014.42 1014.76 1015.08 1015.37 1015.63 1015.85 1016.03 1016.16 1016.24 1016.27 1016.25 1016.20 1016.14 1016.07 1016.01 1015.96 1015.93 1015.91 1015.90 1015.88 1015.85 1015.81 1015.75 1015.68 1015.59 1015.49 1015.40
1003.69 1003.82 1004.13 1004.62 1005.28 1006.07 1006.96 1007.89 1008.82 1009.71 1010.54 1011.28 1011.92 1012.48 1012.97 1013.40 1013.79 1014.16 1014.50 1014.82 1015.11 1015.36 1015.56 1015.70 1015.77 1015.77 1015.73 1015.64 1015.53 1015.42 1015.32 1015.25 1015.19 1015.16 1015.14 1015.12 1015.09 1015.05 1014.98 1014.88 1014.76 1014.63 1014.49
1002.91 1003.01 1003.31 1003.80 1004.48 1005.30 1006.22 1007.18 1008.13 1009.04 1009.87 1010.60 1011.24 1011.80 1012.29 1012.72 1013.12 1013.51 1013.88 1014.23 1014.55 1014.82 1015.03 1015.17 1015.24 1015.23 1015.16 1015.05 1014.92 1014.78 1014.65 1014.56 1014.49 1014.45 1014.42 1014.40 1014.37 1014.32 1014.24 1014.13 1013.98 1013.82 1013.64
1002.17 1002.26 1002.57 1003.09 1003.79 1004.63 1005.57 1006.54 1007.50 1008.40 1009.22 1009.94 1010.57 1011.11 1011.59 1012.03 1012.45 1012.85 1013.24 1013.61 1013.95 1014.25 1014.47 1014.62 1014.69 1014.68 1014.60 1014.48 1014.34 1014.19 1014.06 1013.96 1013.88 1013.84 1013.81 1013.78 1013.75 1013.69 1013.59 1013.46 1013.30 1013.11 1012.90
1001.56 1001.66 1001.98 1002.52 1003.23 1004.08 1005.01 1005.97 1006.91 1007.79 1008.59 1009.29 1009.90 1010.44 1010.92 1011.37 1011.80 1012.22 1012.62 1013.02 1013.37 1013.68 1013.92 1014.08 1014.15 1014.15 1014.09 1013.98 1013.84 1013.71 1013.59 1013.49 1013.43 1013.38 1013.35 1013.31 1013.26 1013.18 1013.07 1012.91 1012.73 1012.52 1012.30
1001.16 1001.28 1001.61 1002.15 1002.86 1003.69 1004.59 1005.51 1006.41 1007.25 1008.01 1008.68 1009.28 1009.81 1010.30 1010.76 1011.20 1011.64 1012.07 1012.48 1012.86 1013.18 1013.43 1013.60 1013.69 1013.71 1013.67 1013.59 1013.49 1013.38 1013.28 1013.21 1013.15 1013.10 1013.06 1013.01 1012.93 1012.82 1012.68 1012.50 1012.29 1012.07 1011.82
1001.09 1001.22 1001.55 1002.07 1002.73 1003.51 1004.34 1005.20 1006.02 1006.80 1007.51 1008.15 1008.73 1009.27 1009.77 1010.25 1010.73 1011.19 1011.65 1012.08 1012.46 1012.80 1013.06 1013.25 1013.36 1013.41 1013.40 1013.36 1013.30 1013.23 1013.16 1013.11 1013.06 1013.01 1012.94 1012.86 1012.75 1012.60 1012.42 1012.21 1011.97 1011.72 1011.46
1001.43 1001.56 1001.86 1002.32 1002.92 1003.60 1004.34 1005.09 1005.82 1006.52 1007.17 1007.78 1008.35 1008.89 1009.41 1009.92 1010.43 1010.93 1011.41 1011.86 1012.27 1012.61 1012.89 1013.09 1013.22 1013.29 1013.32 1013.31 1013.29 1013.25 1013.22 1013.17 1013.12 1013.06 1012.97 1012.85 1012.69 1012.49 1012.26 1012.00 1011.73 1011.44 1011.16
Thickness
5746 5742 5742 5740 5738 5736 5734 5733 5731 5730 5729 5727 5725 5723 5722 5722 5723 5724 5724 5723 5722 5721 5721 5719 5718 5717 5716 5715 5714 5713 5711 5710 5709 5708 5705 5706 5707 5707 5707 5708 5708 5707 5707
5740 5739 5737 5738 5736 5734 5732 5731 5729 5729 5728 5728 5726 5725 5722 5720 5721 5721 5721 5721 5720 5720 5719 5718 5717 5716 5715 5714 5713 5712 5710 5708 5708 5706 5702 5699 5700 5702 5704 5705 5705 5704 5704
5741 5739 5736 5736 5735 5733 5732 5731 5729 5728 5727 5726 5724 5721 5718 5717 5716 5717 5717 5718 5719 5718 5718 5717 5716 5715 5714 5713 5712 5712 5710 5707 5705 5705 5703 5697 5694 5695 5699 5700 5700 5701 5701
5744 5740 5737 5735 5735 5733 5732 5729 5728 5726 5725 5724 5723 5720 5717 5714 5715 5715 5715 5716 5717 5716 5716 5715 5714 5713 5713 5712 5712 5711 5710 5708 5704 5703 5702 5701 5699 5695 5692 5695 5696 5697 5697
5746 5741 5738 5737 5736 5734 5731 5728 5726 5724 5723 5722 5722 5720 5717 5715 5714 5714 5713 5714 5714 5714 5714 5713 5713 5712 5711 5711 5710 5710 5709 5708 5705 5703 5700 5698 5696 5695 5693 5689 5690 5692 5693
5746 5742 5739 5736 5734 5733 5730 5727 5725 5722 5721 5721 5721 5720 5717 5714 5712 5711 5710 5711 5711 5711 5711 5711 5711 5710 5709 5709 5709 5708 5708 5706 5705 5703 5701 5698 5696 5693 5691 5687 5685 5685 5687
5746 5742 5738 5736 5734 5731 5729 5727 5724 5721 5721 5720 5720 5719 5717 5715 5713 5712 5711 5710 5709 5709 5709 5709 5709 5708 5708 5707 5707 5706 5705 5704 5703 5701 5699 5697 5696 5694 5691 5687 5683 5682 5682
5747 5744 5741 5739 5736 5733 5730 5728 5726 5723 5722 5721 5719 5718 5717 5715 5714 5714 5713 5712 5711 5710 5709 5708 5708 5707 5706 5705 5705 5704 5702 5701 5700 5699 5697 5695 5693 5692 5690 5687 5683 5679 5678
5750 5746 5744 5741 5738 5735 5732 5729 5727 5724 5722 5721 5719 5718 5716 5716 5715 5714 5713 5712 5711 5710 5708 5708 5706 5705 5704 5704 5703 5702 5700 5698 5697 5695 5694 5692 5690 5689 5688 5686 5684 5679 5674
5751 5748 5746 5743 5740 5737 5733 5730 5727 5725 5723 5721 5720 5719 5717 5716 5715 5714 5712 5711 5710 5709 5707 5706 5705 5704 5703 5702 5700 5699 5697 5696 5694 5692 5691 5689 5687 5686 5684 5683 5680 5679 5675
5752 5749 5747 5745 5742 5738 5734 5731 5728 5725 5723 5722 5720 5719 5717 5716 5715 5714 5713 5712 5710 5708 5707 5705 5704 5702 5701 5700 5698 5697 5695 5693 5691 5690 5688 5686 5685 5683 5681 5679 5677 5674 5672
5752 5750 5747 5744 5741 5737 5734 5732 5729 5727 5725 5723 5720 5719 5717 5716 5715 5714 5712 5711 5709 5708 5706 5704 5702 5701 5699 5698 5696 5694 5693 5691 5689 5688 5686 5684 5682 5680 5678 5675 5673 5671 5669
5751 5748 5746 5743 5741 5738 5736 5733 5731 5728 5726 5723 5720 5718 5716 5715 5715 5714 5712 5710 5708 5706 5705 5703 5701 5700 5698 5696 5695 5693 5691 5689 5687 5685 5683 5682 5679 5677 5675 5672 5670 5668 5666
5753 5749 5747 5745 5743 5740 5737 5734 5731 5728 5725 5723 5720 5718 5716 5715 5714 5713 5711 5709 5707 5705 5703 5701 5700 5699 5697 5695 5693 5691 5689 5687 5685 5683 5681 5679 5677 5675 5673 5670 5668 5665 5663
5752 5752 5750 5747 5744 5741 5738 5735 5732 5729 5726 5722 5720 5718 5717 5715 5714 5712 5710 5708 5706 5704 5702 5700 5698 5696 5695 5693 5691 5689 5687 5684 5682 5680 5678 5677 5675 5673 5670 5668 5666 5663 5659
5755 5754 5752 5749 5746 5744 5741 5738 5733 5730 5727 5724 5721 5719 5717 5714 5712 5711 5709 5706 5704 5702 5700 5698 5696 5694 5694 5693 5690 5687 5685 5682 5679 5677 5676 5674 5672 5671 5668 5666 5664 5661 5657
5757 5756 5755 5753 5750 5749 5746 5741 5737 5733 5728 5725 5723 5720 5717 5714 5712 5710 5707 5704 5702 5700 5698 5696 5694 5693 5692 5690 5688 5685 5682 5679 5677 5674 5672 5671 5670 5668 5665 5663 5661 5658 5656
5757 5758 5757 5755 5754 5751 5748 5744 5739 5734 5730 5726 5724 5721 5717 5715 5712 5709 5706 5703 5701 5698 5697 5694 5693 5691 5689 5688 5685 5682 5679 5676 5674 5671 5669 5667 5666 5664 5661 5659 5657 5655 5653
5759 5760 5760 5759 5756 5752 5749 5743 5738 5734 5731 5728 5725 5723 5720 5716 5711 5708 5705 5702 5699 5697 5695 5693 5691 5688 5687 5685 5682 5679 5675 5672 5670 5668 5666 5664 5662 5660 5657 5654 5652 5651 5651
5757 5759 5759 5758 5755 5753 5749 5743 5739 5735 5733 5732 5729 5725 5721 5717 5712 5709 5705 5701 5698 5696 5693 5690 5688 5686 5684 5682 5679 5675 5671 5668 5666 5664 5662 5660 5658 5656 5653 5649 5647 5645 5646
5755 5757 5757 5756 5755 5752 5748 5743 5739 5738 5738 5735 5729 5724 5721 5717 5713 5708 5704 5700 5696 5692 5690 5688 5686 5684 5682 5679 5675 5671 5667 5665 5662 5660 5659 5657 5654 5651 5648 5644 5642 5641 5640
5750 5752 5753 5752 5750 5748 5746 5742 5740 5742 5738 5733 5727 5723 5719 5715 5711 5706 5701 5697 5693 5688 5686 5683 5681 5680 5678 5675 5672 5668 5665 5662 5658 5657 5656 5653 5650 5646 5643 5640 5638 5634 5630
5743 5746 5747 5746 5744 5744 5743 5741 5741 5739 5735 5730 5725 5721 5717 5712 5709 5704 5699 5694 5689 5686 5683 5680 5678 5676 5674 5671 5668 5664 5660 5657 5654 5653 5651 5647 5644 5640 5637 5635 5631 5626 5623
5737 5739 5739 5738 5737 5738 5739 5739 5738 5737 5733 5728 5723 5718 5714 5709 5705 5701 5696 5691 5687 5683 5680 5677 5674 5671 5668 5665 5662 5659 5655 5651 5648 5646 5643 5640 5636 5633 5630 5627 5624 5620 5617
5729 5731 5731 5731 5732 5733 5733 5734 5733 5732 5729 5724 5719 5714 5710 5705 5700 5696 5692 5689 5687 5684 5679 5675 5671 5666 5664 5663 5659 5655 5651 5647 5643 5639 5635 5632 5629 5626 5623 5620 5617 5613 5609
5719 5721 5723 5724 5725 5725 5725 5726 5726 5726 5723 5717 5712 5708 5704 5699 5695 5690 5685 5682 5680 5676 5674 5670 5666 5663 5659 5656 5652 5647 5643 5639 5634 5629 5627 5625 5622 5618 5615 5612 5609 5605 5601